Regional Weather Roundup
Issued by NWS Cleveland, OH

Home | Current Version | Previous Version | Text Only | Print | Product List | Glossary On
Versions: 1 2 3 4 5 6 7 8 9 10 11 12 13 14 15 16 17 18 19 20 21 22 23 24 25 26 27 28 29 30 31 32 33 34 35 36 37 38 39 40 41 42 43 44 45 46 47 48 49 50
000
ASUS41 KCLE 271410
RWRCLE
OHIO REGIONAL WEATHER ROUNDUP
NATIONAL WEATHER SERVICE WILMINGTON, OH
900 AM EST SAT DEC 27 2014

NOTE: "FAIR" INDICATES FEW OR NO CLOUDS BELOW 12,000 FEET WITH NO
SIGNIFICANT WEATHER AND/OR OBSTRUCTIONS TO VISIBILITY.

OHZ001>008-015>018-024>027-034-035-043-044-271500-
   NORTHWEST OHIO

CITY           SKY/WX    TMP DP  RH WIND       PRES   REMARKS
DEFIANCE       LGT RAIN  44  40  85 S14       30.11R FOG
FINDLAY        CLOUDY    46  36  68 S13       30.13R
TOLEDO EXPRESS CLOUDY    45  37  73 S13G20    30.09F
TOLEDO METCALF CLOUDY    46  37  71 S14       30.11F
LIMA           CLOUDY    47  36  65 S12       30.13S
$$

OHZ009>014-019>023-028>033-038-089-271500-
   NORTHEAST OHIO

CITY           SKY/WX    TMP DP  RH WIND       PRES   REMARKS
CLE-HOPKINS    CLOUDY    44  35  70 S12       30.19R
CLE-LAKEFRONT  CLOUDY    46  35  65 SE14      30.15R
CUY CO. ARPT   CLOUDY    46  37  71 S12       30.18R
LORAIN-ELYRIA  CLOUDY    42  36  79 S8        30.16S
ASHTABULA      CLOUDY    40  33  76 S8        30.18R
AKRON-CANTON   MOCLDY    42  33  70 S9        30.20R
WOOSTER        CLOUDY    42  34  73 S7        30.19R
MANSFIELD      CLOUDY    44  34  67 S9        30.17S
YOUNGSTOWN     PTSUNNY   40  32  73 S8        30.19R
$$

OHZ042-051>053-060>062-070>072-077>081-271500-
  SOUTHWEST OHIO

CITY           SKY/WX    TMP DP  RH WIND       PRES   REMARKS
CINC-COVINGTON CLOUDY    44  35  70 S8        30.21S
CINC-LUNKEN    LGT RAIN  40  38  93 W3        30.23F
HAMILTON       CLOUDY    45  37  73 SW3       30.22R
DAYTON         LGT RAIN  44  37  76 S13       30.19R
WRIGHT-PAT AFB MOCLDY    46  37  71 S6        30.18S
DAYTON GENERAL CLOUDY    44  36  73 S12       30.19R
WILMINGTON     CLOUDY    43  34  70 S9        30.20R
$$

OHZ036-037-039>041-045>050-054>059-063>069-073>076-082>088-271500-
  CENTRAL AND SOUTHEAST OHIO

CITY           SKY/WX    TMP DP  RH WIND       PRES   REMARKS
COLUMBUS       MOCLDY    43  32  65 CALM      30.21R
OSU AIRPORT    CLOUDY    42  34  73 S7        30.19S
BOLTON FIELD   CLOUDY    43  36  75 S5        30.20S
RICKENBACK AFB CLOUDY    44  33  67 S7        30.21R
NEWARK         CLOUDY    39  35  86 S3        30.20S
MARION         CLOUDY    43  34  70 S10       30.17S
LANCASTER      CLOUDY    44  35  70 S3        30.23R
ZANESVILLE     SUNNY     35  31  85 S5        30.23R
NEW PHILLY     CLOUDY    40  33  76 SE6       30.24R
$$


USA.gov is the U.S. government's official web portal to all federal, state and local government web resources and services.